Shirley, NY
on Friday, December 8, 2017

Friday
       
Previous Day Next Day
Daily Summary
 ActualAverage (KISP)Record (KISP)
Temperature
Mean Temperature °F °C °F °C  
Max Temperature 39°F 4°C 44°F 6°C 62°F 16°C (1980)
Min Temperature 33°F 1°C 30°F -1°C 15°F -9°C (1970)
Degree Days
Heating Degree Days 29    
Moisture
Dew Point 22°F -6°C   
Average Humidity 55    
Maximum Humidity 67    
Minimum Humidity 43    
Precipitation
Precipitation 0.00 in / 0.00 cm in / cm in / cm ()
Wind
Wind Speed 5 mph / 8 km/h   
Max Wind Speed 7 mph / 11 km/h   
Max Gust Speed mph / km/h   
Visibility 10 miles / 16 kilometers   
Events     
Averages and records for this station are not official NWS values.
Key: T is trace of precipitation, MM is missing value
Source: NWS Daily Summary
Seasonal Weather Averages
Time(EST)TemperatureDew PointHumidity Pressure Visibility Wind DirectionWind SpeedGust SpeedPrecipitationEvents Conditions
12:56 AM 37.9°F 3.3°C 26.1°F -3.3°C 62% 30.03 in / 1016.8 hPa 10.0 miles / 16.1 kilometers WSW 5.8 mph / 9.3 km/h - N/A   Mostly Cloudy
1:56 AM 37.0°F 2.8°C 25.0°F -3.9°C 62% 30.04 in / 1017.1 hPa 10.0 miles / 16.1 kilometers West 6.9 mph / 11.1 km/h - N/A   Clear
2:56 AM 35.1°F 1.7°C 24.1°F -4.4°C 64% 30.05 in / 1017.5 hPa 10.0 miles / 16.1 kilometers West 5.8 mph / 9.3 km/h - N/A   Clear
3:56 AM 34.0°F 1.1°C 24.1°F -4.4°C 67% 30.06 in / 1017.8 hPa 10.0 miles / 16.1 kilometers West 3.5 mph / 5.6 km/h - N/A   Clear
4:56 AM 34.0°F 1.1°C 21.9°F -5.6°C 61% 30.07 in / 1018.1 hPa 10.0 miles / 16.1 kilometers West 4.6 mph / 7.4 km/h - N/A   Clear
5:56 AM 33.1°F 0.6°C 21.0°F -6.1°C 61% 30.07 in / 1018.3 hPa 10.0 miles / 16.1 kilometers West 4.6 mph / 7.4 km/h - N/A   Clear
6:56 AM 34.0°F 1.1°C 21.9°F -5.6°C 61% 30.06 in / 1018.0 hPa 10.0 miles / 16.1 kilometers West 3.5 mph / 5.6 km/h - N/A   Clear
7:56 AM 34.0°F 1.1°C 23.0°F -5.0°C 64% 30.09 in / 1018.9 hPa 10.0 miles / 16.1 kilometers West 3.5 mph / 5.6 km/h - N/A   Clear
8:56 AM 36.0°F 2.2°C 21.9°F -5.6°C 57% 30.08 in / 1018.6 hPa 10.0 miles / 16.1 kilometers West 3.5 mph / 5.6 km/h - N/A   Clear
9:56 AM 37.0°F 2.8°C 21.9°F -5.6°C 54% 30.10 in / 1019.1 hPa 10.0 miles / 16.1 kilometers West 4.6 mph / 7.4 km/h - N/A   Clear
10:56 AM 37.9°F 3.3°C 21.0°F -6.1°C 51% 30.08 in / 1018.6 hPa 10.0 miles / 16.1 kilometers WNW 6.9 mph / 11.1 km/h - N/A   Scattered Clouds
11:56 AM 39.0°F 3.9°C 19.9°F -6.7°C 46% 30.06 in / 1017.8 hPa 10.0 miles / 16.1 kilometers West 5.8 mph / 9.3 km/h - N/A   Partly Cloudy
12:56 PM 39.9°F 4.4°C 19.0°F -7.2°C 43% 30.05 in / 1017.4 hPa 10.0 miles / 16.1 kilometers Variable 4.6 mph / 7.4 km/h - N/A   Partly Cloudy
1:56 PM 39.0°F 3.9°C 19.0°F -7.2°C 45% 30.05 in / 1017.5 hPa 10.0 miles / 16.1 kilometers West 4.6 mph / 7.4 km/h - N/A   Mostly Cloudy
2:56 PM 39.0°F 3.9°C 21.9°F -5.6°C 50% 30.02 in / 1016.6 hPa 10.0 miles / 16.1 kilometers SSW 6.9 mph / 11.1 km/h - N/A   Clear
3:56 PM 37.9°F 3.3°C 21.9°F -5.6°C 53% 30.04 in / 1017.0 hPa 10.0 miles / 16.1 kilometers SW 3.5 mph / 5.6 km/h - N/A   Overcast
4:56 PM 37.9°F 3.3°C 21.0°F -6.1°C 51% 30.03 in / 1016.9 hPa 10.0 miles / 16.1 kilometers SSW 4.6 mph / 7.4 km/h - N/A   Mostly Cloudy
5:56 PM 37.9°F 3.3°C 23.0°F -5.0°C 55% 30.03 in / 1016.9 hPa 10.0 miles / 16.1 kilometers WSW 3.5 mph / 5.6 km/h - N/A   Overcast
6:56 PM 37.9°F 3.3°C 21.9°F -5.6°C 53% 30.00 in / 1015.8 hPa 10.0 miles / 16.1 kilometers West 6.9 mph / 11.1 km/h - N/A   Overcast
7:56 PM 37.0°F 2.8°C 21.0°F -6.1°C 52% 30.00 in / 1015.7 hPa 10.0 miles / 16.1 kilometers West 3.5 mph / 5.6 km/h - N/A   Overcast
8:56 PM 37.0°F 2.8°C 21.0°F -6.1°C 52% 29.99 in / 1015.3 hPa 10.0 miles / 16.1 kilometers WNW 4.6 mph / 7.4 km/h - N/A   Overcast
9:56 PM 37.0°F 2.8°C 19.0°F -7.2°C 48% 29.99 in / 1015.4 hPa 10.0 miles / 16.1 kilometers SW 3.5 mph / 5.6 km/h - N/A   Overcast
10:56 PM 37.0°F 2.8°C 21.0°F -6.1°C 52% 29.99 in / 1015.4 hPa 10.0 miles / 16.1 kilometers West 4.6 mph / 7.4 km/h - N/A   Overcast
11:56 PM 36.0°F 2.2°C 19.9°F -6.7°C 52% 29.96 in / 1014.6 hPa 10.0 miles / 16.1 kilometers West 5.8 mph / 9.3 km/h - N/A   Overcast